Showing default

COSMOS 2206 (GLONASS), 22056

Orbit data source: Space-Track

COSMOS 2206 (GLONASS), 22056 is a payload satellite owned by VVS (CIS) in MEO that was launched on Thu, 30 Jul 1992 UTC via a PROTON-K/DM-2 launch vehicle from the Tyuratam Missile And Space Complex (TTMTR). Payload-class satellites include a variety of spacecraft equipped with specific instruments for various scientific and technological missions. These include communications satellites like Starlink; space stations such as the ISS; scientific satellites like the Hubble; Earth observation satellites from companies like Planet Labs, Umbra, and HawkEye 360; GPS; miniature CubeSats for education and research; and military/defense satellites.

Loading next visibility...
Identifier
22056, 1992-047A
Orbit
MEO
Country
Flag of CISCIS
Related business
Manufacturer
Polyot
Mission
Non-operational Defense Navigation
Bus & Motor
URAGAN, Unknown motor
Mass
1,300 kg wet, ~1,200 kg dry
Launch date (UTC)
1992-07-30 (33 years ago)
Launch vehicle
PROTON-K/DM-2
Launch site
Tyuratam Missile And Space Complex (TTMTR)
Object type
Payload
Rocket body
Debris
Shape & HBR
Cyl + 2 Pan, 4.2 m
Radar Cross Section
14.707 m², Large (>1 m²)

Expand to show TLE details & history
Last TLE update: 2 days ago

TLE from 2 days ago
0 COSMOS 2206 (GLONASS)
1 22056U 92047A   25347.93308625 -.00000069  00000-0  00000-0 0  9990
2 22056  64.2663 308.6299 0010529 248.7794 288.2144  2.13107419259675
Epoch: 2025-12-13T22:23Z
TLE epoch observation values (Epoch: 2025-12-13T22:23:38.652Z)
Latitude
2.75529°
Longitude
68.5248°
Altitude
19,121.332 km
Speed
3.954 km/s
True Right ascension
08h 29m 09s
True Declination
2° 45' 02"
Sunlit
Object was in daylight at epoch
Visualization orbit readout
Latitude
Unknown
Longitude
Unknown
Altitude
Unknown
Speed
Unknown
Apparent Right ascension
Unknown
Apparent Declination
Unknown
Sunlit
N/A
Visualization observer readout
Local Sidereal Time
15:11:06
Azimuth
Unknown
Elevation
Unknown
Doppler factor
Unknown
Orbital elements
Apogee altitude
19,155.952 km
Perigee altitude
19,102.239 km
Semi-major axis
25,507.233 km
Eccentricity
0.00105
Inclination
64.2663°
RAAN
308.6299°
Arg. of periapsis
248.7794°
True anomaly
288.09974°
Mean anomaly
288.2144°
Eccentric anomaly
288.15708°
Mean motion
0.53278 °/min
Orbital period
675.7 mins
BSTAR
0
Loading maneuver chart data...
Computing Atmospheric mass density...
Loading historical data...
Loading historical data...
Loading historical data...
Loading historical data...
Loading historical data...
Loading historical data...
Loading historical data...

Documentation

Showing up to 5 results
|